Weather reports worldwide

Advertisment
Brescia/Ghedi, Italy (16088): temperature & dewpoint: 11.07.2019 01:00:00 - 17.07.2019 01:00:00 (CEST)Brescia/Ghedi, Italy (16088): wind speed: 11.07.2019 01:00:00 - 17.07.2019 01:00:00 (CEST)Brescia/Ghedi, Italy (16088): wind direction: 11.07.2019 01:00:00 - 17.07.2019 01:00:00 (CEST)Brescia/Ghedi, Italy (16088): reduced air pressure: 11.07.2019 01:00:00 - 17.07.2019 01:00:00 (CEST)Brescia/Ghedi, Italy (16088): visibility: 11.07.2019 01:00:00 - 17.07.2019 01:00:00 (CEST)
Date & Time tt [°C] td [°C] ff [km/h] ff [kn] dd ppp [hPa] vv [km]
17.07.2019 01:00:00 22,6 20,0 2 1 NNE 1013,1 20
17.07.2019 00:00:00 23,2 19,0 4 2 NW 1012,7 20
16.07.2019 23:00:00 24,2 18,4 2 1 N 1012,5 20
16.07.2019 22:00:00 25,2 17,4 2 1 SSW 1012,3 20
16.07.2019 21:00:00 26,2 15,9 4 2 SW 1012,1 20
16.07.2019 20:00:00 28,8 15,7 8 4 WSW 1012,1 20
16.07.2019 19:00:00 29,0 15,9 9 5 WSW 1012,4 20
16.07.2019 18:00:00 29,2 15,7 9 5 WSW 1013,0 20
16.07.2019 17:00:00 29,5 16,3 9 5 W 1013,1 20
16.07.2019 16:00:00 29,2 17,1 9 5 WSW 1013,3 20
16.07.2019 15:00:00 28,8 16,7 4 2 SW 1013,4 20
16.07.2019 14:00:00 28,0 16,6 11 6 W 1013,7 20
16.07.2019 13:00:00 27,2 15,9 8 4 SSW 1013,8 20
16.07.2019 12:00:00 26,8 17,9 5 3 SSW 1013,9 20
16.07.2019 11:00:00 26,0 18,4 5 3 S 1014,2 20
16.07.2019 10:00:00 24,2 18,6 5 3 W 1014,1 20
16.07.2019 09:00:00 23,0 17,7 4 2 WSW 1013,8 20
16.07.2019 08:00:00 21,2 17,4 8 4 E 1013,5 20
16.07.2019 07:00:00 19,2 17,2 5 3 ENE 1013,5 20
16.07.2019 06:00:00 18,8 17,1 2 1 ENE 1013,3 10
16.07.2019 05:00:00 19,8 18,1 5 3 NW 1013,2 10
16.07.2019 04:00:00 20,0 18,3 4 2 NW 1013,3 10
16.07.2019 03:00:00 21,2 20,4 4 2 NW 1013,4 10
16.07.2019 02:00:00 21,0 20,3 4 2 NW 1013,4 10
16.07.2019 01:00:00 20,8 20,1 2 1 W 1013,4 10
16.07.2019 00:00:00 21,8 20,3 5 3 WSW 1012,9 20
15.07.2019 23:00:00 22,0 20,3 5 3 SW 1012,7 20
15.07.2019 22:00:00 22,2 20,5 8 4 W 1012,3 15
15.07.2019 21:00:00 23,0 20,3 5 3 W 1012,1 10
15.07.2019 20:00:00 24,2 19,9 8 4 W 1011,6 20
15.07.2019 19:00:00 25,2 20,0 5 3 SSW 1011,2 20
15.07.2019 18:00:00 25,2 20,5 4 2 W 1011,2 20
15.07.2019 17:00:00 24,0 19,5 4 2 S 1011,4 20
15.07.2019 16:00:00 23,2 20,5 5 3 SW 1011,6 20
15.07.2019 15:00:00 21,6 19,2 11 6 SSE 1011,5 15
15.07.2019 14:00:00 22,0 20,1 11 6 SSE 1011,3 15
15.07.2019 13:00:00 22,8 19,2 16 9 ENE 1010,2 15
15.07.2019 12:00:00 21,4 20,6 18 10 NE 1010,5 10
15.07.2019 11:00:00 20,2 19,9 16 9 E 1011,0 6
15.07.2019 10:00:00 21,0 18,6 29 16 ENE 1009,9 10
15.07.2019 09:00:00 21,2 18,4 11 6 E 1009,5 10
15.07.2019 08:00:00 21,2 17,8 5 3 E 1008,9 10
15.07.2019 07:00:00 21,0 18,4 21 11 NE 1008,9 10
15.07.2019 06:00:00 21,0 19,7 16 9 ENE 1009,3 10
15.07.2019 05:00:00 21,6 19,9 18 10 ENE 1009,2 10
15.07.2019 04:00:00 22,4 20,3 13 7 ENE 1009,2 10
15.07.2019 03:00:00 24,0 19,1 16 9 E 1009,2 10
15.07.2019 02:00:00 24,2 19,7 16 9 E 1009,1 10
15.07.2019 01:00:00 24,6 18,8 13 7 ESE 1009,3 20
15.07.2019 00:00:00 25,0 18,2 18 10 ESE 1009,1 20
14.07.2019 23:00:00 25,2 17,9 21 11 E 1008,9 20
14.07.2019 22:00:00 25,4 17,9 18 10 ESE 1008,9 20
14.07.2019 21:00:00 26,8 17,9 11 6 E 1008,0 20
14.07.2019 20:00:00 28,4 17,0 18 10 SE 1008,4 30
14.07.2019 19:00:00 29,4 16,2 15 8 SE 1008,3 30
14.07.2019 18:00:00 29,7 16,2 13 7 SSE 1008,9 30
14.07.2019 17:00:00 29,8 16,2 11 6 SSE 1009,3 30
14.07.2019 16:00:00 29,8 16,2 13 7 SSE 1009,7 30
14.07.2019 15:00:00 29,2 15,4 13 7 SE 1010,1 30
14.07.2019 14:00:00 29,0 16,2 13 7 SSE 1010,7 30
14.07.2019 13:00:00 28,2 17,7 13 7 SE 1011,2 30
14.07.2019 12:00:00 27,2 16,5 13 7 SE 1011,2 30
14.07.2019 11:00:00 26,8 16,1 11 6 E 1011,4 30
14.07.2019 10:00:00 24,6 17,1 5 3 E 1011,4 30
14.07.2019 09:00:00 23,0 17,7 5 3 ENE 1011,3 30
14.07.2019 08:00:00 22,1 17,7 5 3 N 1011,3 30
14.07.2019 07:00:00 20,0 17,6 2 1 W 1011,8 30
14.07.2019 06:00:00 19,0 16,6 5 3 SSW 1011,9 30
14.07.2019 05:00:00 19,0 15,7 5 3 N 1011,9 30
14.07.2019 04:00:00 19,9 16,4 5 3 NE 1012,7 20
14.07.2019 03:00:00 20,2 16,2 8 4 NE 1013,1 20
14.07.2019 02:00:00 20,7 16,5 9 5 ENE 1013,1 20
14.07.2019 01:00:00 21,3 16,3 11 6 ENE 1013,1 20
14.07.2019 00:00:00 21,7 15,8 13 7 ENE 1012,8 20
13.07.2019 23:00:00 22,1 15,7 18 10 ENE 1012,1 20
13.07.2019 22:00:00 24,1 20,2 29 16 E 1011,1 20
13.07.2019 21:00:00 26,1 20,2 8 4 NNE 1009,0 10
13.07.2019 20:00:00 27,2 20,0 8 4 NNE 1008,1 10
13.07.2019 19:00:00 27,0 20,6 8 4 ENE 1008,3 10
13.07.2019 18:00:00 27,2 22,6 9 5 N 1008,6 10
13.07.2019 17:00:00 28,8 19,7 18 10 ENE 1008,7 10
13.07.2019 16:00:00 29,8 19,2 9 5 SSE 1008,8 10
13.07.2019 15:00:00 29,4 19,4 8 4 SSW 1009,1 10
13.07.2019 14:00:00 29,2 19,5 8 4 S 1009,1 10
13.07.2019 13:00:00 29,2 19,2 5 3 S 1009,3 10
13.07.2019 12:00:00 28,0 20,0 5 3 S 1009,3 10
13.07.2019 11:00:00 26,8 20,2 4 2 S 1009,4 10
13.07.2019 10:00:00 26,0 20,6 4 2 SSW 1009,5 10
13.07.2019 09:00:00 25,4 20,9 4 2 SSW 1009,5 10
13.07.2019 08:00:00 23,0 20,3 9 5 NE 1009,3 10
13.07.2019 07:00:00 22,0 19,9 11 6 ENE 1009,1 10
13.07.2019 06:00:00 22,5 19,7 11 6 ENE 1009,1 10
13.07.2019 05:00:00 23,0 20,0 8 4 E 1009,3 10
13.07.2019 04:00:00 23,0 20,9 16 9 E 1009,3 10
13.07.2019 03:00:00 23,5 20,4 16 9 NE 1009,3 10
13.07.2019 02:00:00 23,5 20,3 15 8 NE 1009,5 10
13.07.2019 01:00:00 23,0 19,4 15 8 ENE 1010,3 10
13.07.2019 00:00:00 23,2 19,2 15 8 E 1010,3 10
12.07.2019 23:00:00 24,0 19,3 18 10 E 1010,1 10
12.07.2019 22:00:00 25,5 18,7 16 9 E 1009,4 10
12.07.2019 21:00:00 26,5 19,1 15 8 E 1009,0 10
12.07.2019 20:00:00 28,0 19,0 22 12 E 1008,3 10
12.07.2019 19:00:00 31,0 17,7 4 2 SSE 1008,2 10
12.07.2019 18:00:00 31,0 17,7 5 3 WNW 1008,6 10
12.07.2019 17:00:00 30,7 18,4 9 5 WNW 1008,8 10
12.07.2019 16:00:00 30,1 18,2 8 4 WSW 1009,6 10
12.07.2019 15:00:00 29,9 18,7 8 4 SSW 1010,3 10
12.07.2019 14:00:00 29,1 18,9 8 4 W 1011,3 10
12.07.2019 13:00:00 28,3 19,0 9 5 WSW 1011,6 10
12.07.2019 12:00:00 28,0 19,3 8 4 SSW 1011,8 10
12.07.2019 11:00:00 26,7 18,8 5 3 W 1012,4 10
12.07.2019 10:00:00 26,0 18,7 5 3 SW 1012,5 10
12.07.2019 09:00:00 25,1 19,7 4 2 W 1012,8 10
12.07.2019 08:00:00 23,4 20,3 8 4 ESE 1012,4 10
12.07.2019 07:00:00 21,0 19,5 5 3 NNE 1012,6 10
12.07.2019 06:00:00 20,2 18,9 8 4 ENE 1012,5 10
12.07.2019 05:00:00 21,0 20,0 11 6 ENE 1012,3 10
12.07.2019 04:00:00 21,0 20,0 9 5 ENE 1012,4 10
12.07.2019 03:00:00 21,8 18,8 11 6 ENE 1012,6 10
12.07.2019 02:00:00 22,0 19,0 11 6 ENE 1012,5 10
12.07.2019 01:00:00 24,0 20,3 11 6 ENE 1012,6 10
12.07.2019 00:00:00 23,6 20,0 11 6 ENE 1012,4 10
11.07.2019 23:00:00 24,0 19,9 9 5 ENE 1012,2 10
11.07.2019 22:00:00 25,4 20,7 2 1 E 1011,5 10
11.07.2019 21:00:00 27,0 19,4 5 3 SE 1011,2 10
11.07.2019 20:00:00 27,2 18,0 4 2 SSE 1011,1 10
11.07.2019 19:00:00 27,5 17,7 2 1 S 1011,1 10
11.07.2019 18:00:00 28,0 17,5 5 3 S 1011,3 10
11.07.2019 17:00:00 28,5 17,7 5 3 SW 1011,9 10
11.07.2019 16:00:00 28,2 17,4 5 3 S 1012,1 10
11.07.2019 15:00:00 28,0 18,1 5 3 SSW 1012,9 10
11.07.2019 14:00:00 27,2 17,4 5 3 SSE 1013,8 10
11.07.2019 13:00:00 27,0 17,8 5 3 S 1014,0 10
11.07.2019 12:00:00 27,0 18,0 9 5 SSE 1014,3 15
11.07.2019 11:00:00 26,5 18,1 11 6 SE 1014,4 15
11.07.2019 10:00:00 25,8 18,7 13 7 ESE 1014,4 15
11.07.2019 09:00:00 24,5 18,7 13 7 ESE 1014,5 15
11.07.2019 08:00:00 24,2 17,9 11 6 E 1014,3 15
11.07.2019 07:00:00 22,4 18,4 9 5 E 1013,3 10
11.07.2019 06:00:00 22,6 19,0 9 5 ENE 1013,3 10
11.07.2019 05:00:00 23,2 19,4 8 4 ENE 1013,5 10
11.07.2019 04:00:00 23,2 19,8 9 5 E 1013,5 10
11.07.2019 03:00:00 23,0 19,2 5 3 ENE 1013,5 10
11.07.2019 02:00:00 23,2 19,6 8 4 E 1013,5 10
11.07.2019 01:00:00 23,4 19,8 5 3 NE 1013,5 10

tt = temperature
td = dewpoint
ff = wind speed
dd = wind direction
ppp = reduced air pressure
vv = visibility

Next stations